Regional Weather Roundup
Issued by NWS Wakefield, VA

Home | Current Version | Previous Version | Graphics & Text | Print | Product List | Glossary On
Versions: 1 2 3 4 5 6 7 8 9 10 11 12 13 14 15 16 17 18 19 20 21 22 23 24 25 26 27 28 29 30 31 32 33 34 35 36 37 38 39 40 41 42 43 44 45 46 47 48 49 50
000
ASUS41 KAKQ 260910
RWRAKQ

REGIONAL WEATHER ROUNDUP
NATIONAL WEATHER SERVICE WAKEFIELD VA
500 AM EDT SAT JUL 26 2014

Note: "fair" indicates few or no clouds below 12,000 feet with no
significant weather and/or obstructions to visibility. * = Denotes
station may not report precipitation (e.g., rain,snow,etc.),
thunder or fog.

VAZ042-051-052>054-056-261000-
NORTHERN VIRGINIA

CITY           SKY/WX    TMP DP  RH WIND       PRES   REMARKS
WASH NATIONAL  CLOUDY    73  64  73 S10       30.00S
DULLES         CLOUDY    68  62  81 S6        29.99S
FORT BELVOIR   MOCLDY    65  64  95 CALM      30.01R
QUANTICO       CLOUDY    71  63  75 SW5       30.01R
FREDERICKSBRG* CLOUDY    69  65  86 CALM      30.00R
STAFFORD*      CLOUDY    66  66 100 CALM      30.05R
WARRENTON      MOCLDY    68  68  99 CALM      30.00R
CULPEPER*      CLOUDY   N/A N/A N/A CALM      30.01R
MANASSAS*      CLOUDY    66  66 100 CALM      30.00R
LEESBURG*      CLOUDY    68  64  88 CALM      30.01R
WINCHESTER     CLOUDY    68  63  83 W3        30.00S
$$

VAZ048-049-060>072-079>083-261000-
CENTRAL AND SOUTH CENTRAL VIRGINIA...AND NORTH CENTRAL NORTH CAROLINA

CITY           SKY/WX    TMP DP  RH WIND       PRES   REMARKS
RICHMOND       CLOUDY    69  64  84 SE3       30.01S
CHESTERFIELD*  CLOUDY   N/A N/A N/A S5        30.02S
HANOVER        CLOUDY    69  64  84 S5        30.02S
TAPPAHANNOCK*  CLOUDY    66  60  80 S3        30.02F
CHARLOTTSVILLE CLOUDY    67  64  90 CALM      30.01R
ORANGE*        CLOUDY    66  63  88 CALM      30.02R
LOUISA*        CLOUDY    66  64  94 CALM      30.01R
FARMVILLE*     CLOUDY    66  66 100 CALM      29.99S
SOUTH HILL*    CLOUDY    72  72 100 CALM      30.06S FOG
ROANOKE RAPIDS CLOUDY    64  64 100 CALM      30.02R
RALEIGH        CLOUDY    72  69  90 S3        30.01S FOG
$$

VAZ088>098-261000-
SOUTHEAST VIRGINIA

CITY           SKY/WX    TMP DP  RH WIND       PRES   REMARKS
NORFOLK        PTCLDY    68  61  78 S3        30.02S
VIRGINIA BEACH PTCLDY    66  62  87 CALM      30.01S
NORFOLK NAVAL  MOCLDY    71  62  73 S3        30.04R
WEST POINT*    MOCLDY    68  62  79 CALM      30.03F
NEWPORT NEWS   PTCLDY    68  62  81 CALM      30.02S
LANGLEY AFB    PTCLDY    67  66  99 CALM      30.01F
FORT EUSTIS    PTCLDY    72  62  72 S6        30.00S
WILLIAMSBURG*  MOCLDY    72  64  78 CALM      30.03S
FRANKLIN*      MOCLDY    66  66 100 CALM      30.02S
WAKEFIELD      MOCLDY    65  62  90 CALM      30.02S
$$

VAZ020-022-025-037-045-261000-
WESTERN AND SOUTHWEST VIRGINIA

CITY           SKY/WX    TMP DP  RH WIND       PRES   REMARKS
STAUNTON*      CLOUDY    66  63  89 CALM      30.05R
HOT SPRINGS VA FOG       61  60  95 W9        30.14S VSB 1/4
LYNCHBURG      MOCLDY    67  66  97 CALM      30.03S
DANVILLE       CLOUDY    69  66  90 CALM      30.01S
MARTINSVILLE   CLOUDY    70  69  98 CALM      30.05R FOG
ROANOKE        MOCLDY    72  66  81 CALM      30.04S
BLACKSBURG     PTCLDY    66  66 100 CALM        N/A  FOG
DUBLIN*        PTCLDY    64  64 100 CALM      30.09R FOG
MARION*        CLEAR    N/A N/A N/A CALM      30.12S
HILLSVILLE*    CLOUDY    65  65 100 W3        30.10R FOG
RICHLANDS*     PTSUNNY   66  60  79 CALM      30.10S
WISE*          PTCLDY    63  57  82 CALM      30.11R
ABINGDON*      PTCLDY    62  60  95 CALM      30.08R
$$

MDZ021>025-VAZ099-100-261000-
SOUTHERN MARYLAND AND THE DELMARVA PENINSULA

CITY           SKY/WX    TMP DP  RH WIND       PRES   REMARKS
PATUXENT RIVER CLOUDY    70  62  76 SW7       30.01R
BAY BRIDGE APT   N/A     73  63  68 S6        30.00S
LEONARDTOWN    CLOUDY    68  61  77 SW3       30.03S
DOVER          CLOUDY    64  62  90 S6        29.99S
GEORGETOWN     MOCLDY    63  59  87 S8        30.03R
EASTON         CLOUDY    68  65  88 CALM      30.05R
CAMBRIDGE      MOCLDY    64  61  88 CALM      30.01R
SALISBURY      NOT AVBL
OCEAN CITY     PTCLDY    60  59  96 W3        30.03R
WALLOPS ISLAND PTCLDY    67  62  84 NW3       30.03S
ACCOMACK*        N/A     63  59  88 SW3       30.03R
$$

NCZ012>017-030>032-261000-
EASTERN NORTH CAROLINA

CITY           SKY/WX    TMP DP  RH WIND       PRES   REMARKS
ELIZABETH CITY MOCLDY    67  64  90 CALM      30.02R
AHOSKIE*       CLOUDY    67  64  91 CALM      30.02S
EDENTON*       PTCLDY    66  64  94 CALM      30.02R
CURRITUCK*     MOCLDY    67  61  81 CALM      30.03R
KILL DEVIL HLS PTCLDY    72  63  72 CALM      30.00S
MANTEO         NOT AVBL
CAPE HATTERAS  PTCLDY    75  72  90 NE6       30.00R
GOLDSBORO      CLOUDY    73  73  99 CALM      29.99S
WASHINGTON     CLEAR     67  66  96 CALM      30.01S
GREENVILLE     MOCLDY    68  68 100 CALM      30.03S FOG
NEW BERN       MOCLDY    73  70  90 CALM      30.01R
WILMINGTON     MOCLDY    73  72  96 CALM      29.99S
$$

VAZ048-261000-
ELSEWHERE

CITY           SKY/WX    TMP DP  RH WIND       PRES   REMARKS
HARRISBURG PA  CLOUDY    67  57  70 E3        29.99S
BALTIMORE      CLOUDY    67  61  81 CALM      29.99S
ANNAPOLIS      CLOUDY    72  62  71 S5        29.99S
ANDREWS AFB    CLOUDY    69  64  84 S8        30.00S
WILMINGTON DE  CLOUDY    67  55  65 CALM      30.01S
PHILADELPHIA   CLOUDY    69  60  73 S5        30.01S
WILDWOOD NJ*   MOCLDY    64  59  82 CALM      30.03R
ATLANTIC CITY  CLOUDY    66  61  84 SW5       30.01R
HENDERSON NC   CLOUDY    69  66  93 CALM      30.02R
GREENSBORO     CLOUDY    70  70 100 SW5       30.01S
ROCKY MOUNT    FOG       70  69  97 CALM      30.02R VSB 1/4
FAYETTEVILLE   FOG       73  72  96 E3        30.00R VSB 1/2
CHARLOTTE      MOCLDY    71  69  93 CALM      30.01S FOG
$$

VAZ100-261000-
MARINE

STATION/POSITION TIME  TEMP    WIND        PRES    WAVE   SWELL
                       AIR SEA DIR/SP/G            HT/PER HT/PER
                 (UTC) (F)     (DEG/KT/KT) (MB)    (FT/S) (FT/S)
44066 TX TWR #4  0900   72 74  250/  8/ 10 1016.0F   2/ 7   2/ 7
CAPE MAY NJ      0900   70 77  180/  3/  5 1016.0R
LEWES DE         0900   67 70  220/  4/  6 1016.1S
15NM E FENWICK I 0900   74 76              1016.7R   2/ 8
OCEAN-CITY-INLET 0900   69 72  260/  4/  5 1016.3R
WACHAPREAGUE VA  0900   67 80   CALM  /  1 1016.6R
THOMAS POINT MD  0900   74 79  210/ 11/ 12 1016.3R
GOOSES REEF MD   0900   74     220/ 14/ 17 1016.3S
COVE POINT MD    0900   72     230/ 12/ 15 1015.9S
SOLOMONS ISLAND  0900      81                N/A
BISHOPS HEAD MD  0900   76 78  220/ 12/ 12 1015.7F
PINEY POINT MD   0900          210/ 10/ 12   N/A
POTOMAC MD       0900   74     230/ 12/ 14 1015.5S
CAMBRIDGE MD     0900   69 80  160/  3/  4 1015.8R
LEWISETTA VA     0900   70 79  230/  7/  8 1015.9F
RAPPAHANNOCK LGT 0900          190/ 10/ 11 1016.9F
STINGRAY PT      0900   74     220/  6/  8 1017.1F
YORK RVR RNG VA  0900   74     190/  8/  9 1015.9F
YORKTOWN VA      0900   70 80  170/  2/  3 1016.0F
JAMESTOWN VA     0900   71     200/  8/ 10   N/A
DOMINION TERM VA 0900   74     210/  4/  5 1016.5S
KIPTOPEKE VA     0900      81  210/  8/  9   N/A
CHES BAY BRIDGE  0900   73 78  180/  5/  5 1015.9F
CAPE HENRY VA    0900   70     230/  2/  3 1015.4R
WILLOUBY STN VA  0900          190/  7/  8 1015.8R
S CRANEY ISL VA  0900          160/  4/  5 1016.6R
CAPE HENRY BUOY  0900      77                N/A     2/ 7
1ST LANDING BUOY 0900   74     210/  4/  6 1016.3R
CAPE CHARLES BUO 0900      76                N/A     2/ 7
OFFSHORE WE BUOY 0900      78                N/A     2/ 7
64NM E OF VA BCH 0900   76 78  160/  4/  6 1016.2S   2/ 7   2/ 7
DUCK PIER NC     0900   76 76  130/  8/  9 1015.6S
44056 DUCK FRF   0900                        N/A     2/ 7
OREGON INLET NC  0900   74 79   80/  4/  5 1016.1R
HATTERAS NC      0900   76 81   70/  4/  5 1016.2F
DIAMOND SHLS NC  0900          VRB  2/  4  1015.5R   2/ 6   2/ 6
CAPE LOOKOUT NC  0800   79      50/  2/  2 1015.4F
$$


USA.gov is the U.S. government's official web portal to all federal, state and local government web resources and services.